Location: *
(33.8649°S, 62.1526°E)
Time: 12:35:54
(UTC+00:00)

H-2A R/B - Pass Details

Date: 17 January 2021
Orbit: 573 x 598 km, 98.2° (Epoch: 02 March)

Event Time Altitude Azimuth Distance (km) Brightness Sun altitude
Exits shadow 16:44:19 23° 354° (N) 1,260 4.8 -18.1°
Maximum altitude 16:46:45 59° 281° (W) 676 3.9 -18.5°
Drops below altitude 10° 16:50:50 10° 201° (SSW) 1,913 7.0 -19.1°
Sets 16:53:02 0° 196° (SSW) 2,819 8.0 -19.4°
